Location: Kelowna
(49.8880°N, 119.4960°W)
Time: 22:06:49
(UTC-07:00)

CAS-6 - Visible Passes

Search period start: 15 April 2024 00:00
Search period end: 25 April 2024 00:00
Orbit: 608 x 629 km, 97.8° (Epoch: 15 April)

Date Brightness Start Highest point End Pass type
(mag) Time Alt. Az. Time Alt. Az. Time Alt. Az.
15 Apr ? 21:55:07 22° E 21:55:58 23° ENE 21:59:23 10° N visible
15 Apr ? 23:32:14 45° W 23:32:14 45° W 23:36:00 10° NNW visible
16 Apr ? 22:11:57 30° E 22:12:34 31° ENE 22:16:25 10° N visible
16 Apr ? 23:49:05 31° W 23:49:05 31° W 23:52:34 10° NNW visible
17 Apr ? 22:28:48 42° E 22:29:14 44° ENE 22:33:22 10° N visible
18 Apr ? 00:05:55 22° W 00:05:55 22° W 00:08:58 10° NW visible
18 Apr ? 22:45:38 62° E 22:45:55 64° ENE 22:50:12 10° N visible
19 Apr ? 00:22:46 16° W 00:22:46 16° W 00:25:08 10° NW visible
19 Apr ? 21:25:21 11° E 21:27:11 14° ENE 21:29:19 10° NNE visible
19 Apr ? 23:02:28 83° S 23:02:38 89° W 23:07:00 10° NNW visible
20 Apr ? 00:39:36 11° W 00:39:36 11° W 00:40:37 10° WNW visible
20 Apr ? 21:42:11 15° E 21:43:43 18° ENE 21:46:41 10° NNE visible
20 Apr ? 23:19:18 61° WSW 23:19:24 61° W 23:23:41 10° NNW visible
21 Apr ? 21:59:00 22° E 22:00:17 25° ENE 22:03:49 10° N visible
21 Apr ? 23:36:08 42° W 23:36:10 42° W 23:40:18 10° NNW visible
22 Apr ? 22:15:50 30° E 22:16:53 34° ENE 22:20:48 10° N visible
22 Apr ? 23:52:57 29° W 23:53:00 29° W 23:56:48 10° NNW visible
23 Apr ? 22:32:39 41° ESE 22:33:32 48° ENE 22:37:42 10° N visible
24 Apr ? 00:09:47 21° W 00:09:52 21° W 00:13:08 10° NW visible
24 Apr ? 21:13:56 10° ENE 21:14:54 11° NE 21:15:52 10° NE visible
24 Apr ? 22:49:29 57° SE 22:50:12 70° ENE 22:54:30 10° N visible
